1st Responders/1st Detectors/Storm Spotters Weather Summary for Fleming County, KY

Forecast Maps


Reg. NEXRAD Animation


National Fire Danger: Day 1 & 2 Map

Current NWS Watch/Warnings

SPC Convective Day 1 Outlook


Day 2 Outlook

(Click images to enlarge|Page will refresh every 5 minutes)
UK Ag. Weather Center Desktop Severe Weather Service[HERE]
Fleming County, KY Hazardous Weather Outlook Webcast
(9 AM to 9 PM Mon-Fri)
[Fast]
[Dial-up]


UKAWC 1st Detectors/1st Responders Precision Weather Forecast For FLEMING County, Kentucky
(based on the NWS County Digital Forecast)

ISSUED AT 02:00 UTC ON TUESDAY JUN 19 2018
DAY MON TUESDAY
EDT 3HR 11P MIDN 1A 2A 3A 4A 5A 6A 7A 8A 9A 10A 11A NOON 1P 2P 3P 4P 5P 6P 7P
MAX/MIN -- -- -- -- -- -- -- -- -- 70° -- -- -- -- -- -- -- -- -- -- 88°
TEMP 76° 76° 74° 74° 72° 70° 70° 72° 72° 76° 79° 81° 85° 86° 88° 88° 88° 88° 88° 85° 83°
SKY COVER 12% 13% 15% 16% 17% 17% 18% 25% 33% 40% 43% 46% 49% 47% 45% 43% 49% 55% 61% 58% 56%
Clouds
DEW PT 70° 70° 70° 70° 70° 70° 70° 70° 70° 70° 70° 70° 72° 72° 72° 72° 72° 70° 70° 70° 70°
RH 78% 81% 87% 87% 93% 96% 96% 97% 93% 84% 76% 68% 65% 61% 59% 57% 57% 55% 56% 60% 64%
POP 12HR -- -- -- -- -- -- -- -- -- 8% -- -- -- -- -- -- -- -- -- -- --
RAIN/SNOW (liq.equ) -- -- -- 0.00in -- -- -- -- -- 0.00in -- -- -- -- -- 0.01in -- -- -- -- --
SNOWFALL -- -- -- 0in -- -- -- -- -- 0in -- -- -- -- -- 0in -- -- -- -- --
WIND SPEED(MPH) 6 6 5 5 5 5 5 5 6 6 7 7 7 7 7 7 7 7 7 7 6
WIND Gust(MPH) 7 7 7 7 6 6 6 6 7 7 8 10 13 13 13 10 10 13 13 10 9
WIND DIR SW SW SW SW SW SW SW SW W W W W W W W W W W W W W
DEW -- -- Lgt Dew Lgt Dew Lgt Dew Lgt Dew Lgt Dew Lgt Dew Lgt Dew -- -- -- -- -- -- -- -- -- -- -- --
HeatIndex 76 76 74 74 72 70 70 72 72 76 79 86 90 93 94 96 96 95 94 91 87
Rain Showers -- -- -- -- -- -- -- -- -- -- -- -- Slight Chance Slight Chance Slight Chance Slight Chance Chance Chance Chance Chance Chance
Thunder Storm -- -- -- -- -- -- -- -- -- -- -- -- Slight Chance Slight Chance Slight Chance Slight Chance Chance Chance Chance Chance Chance
WIND CHILL -- -- -- -- -- -- -- -- -- -- -- -- -- -- -- -- -- -- -- -- --
SPRAY COND
DRY COND
LIVESTOCK HEATSTRESS 73.92 74.20 72.91 72.91 71.49 69.75 69.75 71.78 71.49 74.49 76.33 77.09 79.96 80.17 81.42 81.09 81.09 80.77 80.93 79.24 78.21



DAY WEDNESDAY THURSDAY FRIDAY SATURDAY SUNDAY MONDAY
EDT 6HR 8P 9P 10P 11P MIDN 1A 2A 3A 4A 5A 6A 7A 8A 9A 10A 11A 2P 5P 8P 11P 2A 5A 8A 11A 2P 5P 8P 2A 8A 2P 8P 2A 8A 2P 8P 2A 8A 2P 8P 2A 8A 2P 8P
MAX/MIN -- -- -- -- -- -- -- -- -- -- -- -- 70° -- -- -- -- 85° -- -- -- -- 68° -- -- 79° -- -- 67° 81° -- -- 67° 83° -- -- 67° 83° -- -- 67° 83° --
TEMP 81° 77° 76° 74° 72° 72° 70° 70° 70° 70° 70° 70° 72° 74° 79° 81° 85° 83° 79° 72° 70° 68° 70° 76° 79° 79° 74° 68° 67° 81° 76° 70° 70° 83° 79° 67° 68° 83° 77° 68° 68° 83° 77°
SKY COVER 53% 52% 51% 51% 50% 49% 48% 49% 50% 51% 52% 53% 60% 64% 63% 63% 73% 75% 73% 84% 82% 84% 88% 92% 90% 90% 87% 87% 85% 76% 73% 71% 78% 66% 60% 49% 65% 70% 71% 62% 68% 62% 51%
Clouds
DEW PT 70° 70° 70° 70° 70° 70° 70° 70° 70° 70° 70° 70° 70° 70° 70° 70° 70° 72° 70° 68° 68° 67° 67° 68° 70° 70° 70° 67° 67° 72° 70° 67° 67° 70° 68° 65° 67° 70° 70° 68° 67° 70° 68°
RH 68% 76% 81% 84% 90% 93% 96% 97% 100% 100% 100% 96% 93% 84% 76% 69% 58% 69% 76% 87% 93% 93% 93% 78% 73% 71% 84% 92% 96% 72% 78% 93% 93% 65% 71% 92% 93% 63% 78% 99% 96% 65% 73%
POP 12HR 44% -- -- -- -- -- -- -- -- -- -- -- 34% -- -- -- -- -- 59% -- -- -- 59% -- -- -- 63% -- 58% -- 52% -- 51% -- 43% -- 25% -- 44% -- 43% -- 39%
RAIN/SNOW (liq.equ) 0.11in -- -- -- -- -- 0.03in -- -- -- -- -- 0.03in -- -- -- 0.03in -- 0.18in -- 0.10in -- 0.05in -- 0.10in -- 0.16in -- -- -- -- -- -- -- -- -- -- -- -- -- -- -- --
SNOWFALL 0in -- -- -- -- -- 0in -- -- -- -- -- 0in -- -- -- 0in -- 0in -- 0in -- 0in -- 0in -- 0in -- -- -- -- -- -- -- -- -- -- -- -- -- -- -- --
WIND SPEED(MPH) 5 5 5 5 5 2 2 2 5 5 5 6 6 7 7 8 9 8 7 5 5 2 2 5 5 5 2 2 6 7 7 7 8 13 9 6 7 8 7 5 5 6 6
WIND DIR W W W SW SW SW SW SW SW SW SW SW SW SW SW SW W W W SW W W NW N E E E SE SE S S S SW SW W SW SW SW W SW N N NE
HeatIndex 84 77 76 74 72 72 70 70 70 70 70 70 72 74 79 86 90 90 79 72 70 68 70 76 83 83 74 68 67 86 76 70 70 87 79 67 68 88 77 68 68 87 77
Rain Showers Chance Chance Chance Chance Chance Chance Chance Slight Chance Slight Chance Slight Chance Slight Chance -- Slight Chance Chance Chance Chance Chance Likely Likely Likely Chance Chance Chance Chance Likely Likely Likely Chance Chance Chance Chance Chance Chance Chance Chance Slight Chance Slight Chance Chance Chance Chance Chance Chance --
Thunder Storm Chance Chance Chance Chance Chance Chance Chance Slight Chance Slight Chance Slight Chance Slight Chance -- -- -- -- -- Chance Chance Chance Slight Chance -- -- -- Chance Chance Chance Slight Chance -- Slight Chance Chance Chance -- Slight Chance Chance -- -- Slight Chance Chance Slight Chance Slight Chance Slight Chance Chance --
WIND CHILL -- -- -- -- -- -- -- -- -- -- -- -- -- -- -- -- -- -- -- -- -- -- -- -- -- -- -- -- -- -- -- -- -- -- -- -- -- -- -- -- -- -- --
SPRAY COND
DRY COND
LIVESTOCK HEATSTRESS 77.09 74.60 74.20 72.66 71.27 71.49 69.75 69.82 70.00 70.00 70.00 69.75 71.49 72.66 76.33 77.21 78.95 78.87 76.33 71.06 69.57 67.65 69.57 73.92 76.00 75.78 72.66 67.60 66.82 77.58 73.92 69.57 69.57 78.34 75.78 66.64 67.65 78.08 74.80 67.95 67.80 78.34 74.30

Click on individual weather variable above in left-hand column (ie., TEMP, RH, QPF 12HR) to view state forecast maps






NWS 48 Hr. Forecast Maps,

Regional Hourly Observations For FLEMING County, Kentucky
Issued at 1000 PM EDT MON JUN 18 2018
...CENTRAL KENTUCKY...
  
CITY           SKY/WX    TMP DP  RH WIND       PRES   REMARKS
MT STERLING*     N/A     79  73  83 CALM      30.06R                  
FLEMING/MASON*   N/A     80  73  78 SW6       30.04R                  
DANVILLE*        N/A     77  72  83 CALM      30.07S                  
LEXINGTON        N/A     79  69  71 SW6       30.05R                  
FRANKFORT        N/A     79  69  71 SW7       30.03R                  
LOUISVILLE       N/A     87  73  62 SW8       30.01R HX  94           
LEBANON*         N/A     81  72  74 S3        30.05S                  
GLASGOW*         N/A     79  70  72 CALM      30.05R                  
BOWLING GREEN    N/A     84  70  62 SW5       30.04R                  


Current NOWCAST not available:
Nowcasts are not issued routinely during fair weather. Only when
precipitation or other significant weather is occuring in this county will these
forecasts be issued. Currently, there is no short term forecast in effect.


Fire Weather Forecast For FLEMING County, KY
Provided by the National Weather Service:

Issued at: Mon Jun 18 22:05:02 EDT 2018

Clay City, Stanton, Frenchburg, Brodhead, Mount Vernon, McKee, 
Annville, Burnside, Somerset, London, Monticello, Stearns, 
Whitley City, Corbin, Williamsburg, Barbourville, Middlesboro, 
Pineville, Cumberland, Harlan, Sandy Hook, West Liberty, 
Paintsville, Campton, Salyersville, Prestonsburg, Wheelwright, 
Beattyville, Jackson, Hindman, Pippa Passes, Booneville, Hazard, 
Manchester, Hyden, Jenkins, Whitesburg, Inez, Coal Run, 
Elkhorn City, Pikeville, and South Williamson
700 AM EDT Mon Jun 18 2018

                      Today        Tonight      Tue          

Cloud Cover           MClear       MClear       PCldy        
Chance precip (%)     20           0            40           
Precip type           tstms        None         tstms        
Temp (24H TREND)      89-92 (+1)   64-73 (+5)   87-90        
Rh % (24H TREND)      46-49 (+5)   90-100 (+2)  49-52        
20ftwnd-AM(mph)       Lgt/Var                   Lgt/Var      
20ftwnd-PM(mph)       W 2-6        Lgt/Var      W 3-7        
Precip duration       1                         1            
Precip begin                                                 
Precip end                                                   
Precip amount         0.00         0.00         0.07         
LAL                   3            1            3            
Haines Index (MID)    3                         3            
Mixing hgt(ft-AGL)    6700                      6600         
Transport wnd (mph)   W  6                      W 13         
Vent rate (kt-ft)     33133                     71438        
ADI Early             32 Fair      4 Very Poor  59 Gen Good  
ADI Late              48 Gen Good  11 Poor      65 Good      
Max LVORI Early       6            7            5            
Max LVORI Late        3            8            3            

REMARKS...RANGES OF MIN T EXCEEDING 8 DEGREES & RANGES OF MAX RH        
EXCEEDING 10% INDICATE THE LIKELIHOOD OF THERMAL BELTS. ADI IS        
ATMOSPHERIC DISPERSION INDEX BY LAVDAS. DISPERSION INDEX IS        
MAGNITUDE OF VENT RATE DIVIDED BY 1000.

SPC's Fire Weather Web Tool (Excellent!), SPC's Fire Weather Outlooks, NWS Fire Weather WEB, Fire Danger Class Map,
Keetch-Byram Drought Index, ROMAN Web, Haines Index ,
WFAS's 10-hr Dead Fuel Moist., WFAS's 100-hr Dead Fuel Moist., Probablity of Ignition, Visual blackness Map, Palmer Drought Index, HPC's Rainfall Forecast Maps


Hazardous Weather Outlook For FLEMING County, Kentucky
801 PM EDT Mon Jun 18 2018

 DAY ONE  Tonight.

No hazardous weather is expected.

 DAYS TWO THROUGH SEVEN  Tuesday through Sunday.

Thunderstorms will be possible from Tuesday through Sunday, 
especially during the afternoon and evening hours. 

 SPOTTER INFORMATION STATEMENT  

Spotter activation is not anticipated.

Latest FLEMING County, Kentucky Watches, Warnings and Advisories.
Additional Drought Info.: UKAWC Drought Page, Kentucky Drought Watch


7-Day Forecast For FLEMING County, KY

TONIGHT
Mostly clear. Lows in the lower 70s. Light winds.

TUESDAY
Warm. Partly sunny. A slight chance of showers and thunderstorms late in the morning. A chance of showers and thunderstorms in the afternoon. Highs in the upper 80s. Light winds becoming west around 10 mph in the afternoon. Chance of rain 40 percent.

TUESDAY NIGHT
Mostly cloudy. A chance of showers and thunderstorms in the evening, then a slight chance of showers and thunderstorms near dawn. Lows in the upper 60s. Light winds. Chance of rain 30 percent.

WEDNESDAY
Mostly cloudy. A chance of showers in the morning, then showers likely and a chance of thunderstorms in the afternoon. Highs in the mid 80s. Southwest winds around 10 mph. Chance of rain 60 percent.

WEDNESDAY NIGHT
Mostly cloudy. Showers likely and a chance of thunderstorms in the evening, then a chance of showers late. Lows in the upper 60s. Light winds. Chance of rain 60 percent.

THURSDAY
Cloudy with showers likely and a chance of thunderstorms. Highs around 80. Chance of rain 60 percent.

THURSDAY NIGHT
Mostly cloudy with showers likely and a slight chance of thunderstorms. Lows in the mid 60s. Chance of rain 60 percent.

FRIDAY
Mostly cloudy with a 50 percent chance of showers and thunderstorms. Highs in the lower 80s.

FRIDAY NIGHT
Mostly cloudy with a 50 percent chance of showers and thunderstorms. Lows in the upper 60s.

SATURDAY
Partly sunny with a 40 percent chance of showers and thunderstorms. Highs in the lower 80s.

SATURDAY NIGHT
Mostly cloudy with a 30 percent chance of showers. Lows in the upper 60s.

SUNDAY
Partly sunny with a 40 percent chance of showers and thunderstorms. Highs in the mid 80s.

SUNDAY NIGHT
Mostly cloudy with a chance of showers and a slight chance of thunderstorms. Lows in the upper 60s. Chance of rain 40 percent.

MONDAY
Partly sunny with a 40 percent chance of showers and thunderstorms. Highs in the mid 80s.

Ag Weather Center, Department of Biosystems & Agricultural Engineering, University of Kentucky